TimeCST,TemperatureF,Dew PointF,Humidity,Sea Level PressureIn,VisibilityMPH,Wind Direction,Wind SpeedMPH,Gust SpeedMPH,PrecipitationIn,Events,Conditions,WindDirDegrees,DateUTC
12:53 AM,63.0,54.0,72,30.02,10.0,ESE,4.6,-,N/A,,Clear,110,2013-11-04 06:53:00
1:53 AM,64.9,55.0,70,30.00,10.0,ESE,4.6,-,N/A,,Clear,110,2013-11-04 07:53:00
2:53 AM,62.1,55.0,78,29.98,10.0,Calm,Calm,-,N/A,,Clear,0,2013-11-04 08:53:00
3:53 AM,62.1,55.0,78,29.97,10.0,Calm,Calm,-,N/A,,Clear,0,2013-11-04 09:53:00
4:53 AM,61.0,55.9,83,29.97,10.0,Calm,Calm,-,N/A,,Clear,0,2013-11-04 10:53:00
5:53 AM,60.1,55.9,86,29.99,10.0,Calm,Calm,-,N/A,,Clear,0,2013-11-04 11:53:00
6:53 AM,62.1,55.9,80,29.99,10.0,Calm,Calm,-,N/A,,Clear,0,2013-11-04 12:53:00
7:53 AM,66.0,57.9,75,30.01,10.0,Calm,Calm,-,N/A,,Clear,0,2013-11-04 13:53:00
8:53 AM,73.0,57.9,59,30.02,10.0,ENE,3.5,-,N/A,,Clear,70,2013-11-04 14:53:00
9:53 AM,75.9,57.9,54,30.03,10.0,ESE,3.5,-,N/A,,Clear,120,2013-11-04 15:53:00
10:53 AM,80.1,59.0,48,30.01,10.0,SSE,8.1,-,N/A,,Clear,150,2013-11-04 16:53:00
11:53 AM,81.0,59.0,47,29.98,10.0,SE,16.1,23.0,N/A,,Clear,130,2013-11-04 17:53:00
12:53 PM,81.0,59.0,47,29.94,10.0,SSE,17.3,20.7,N/A,,Clear,150,2013-11-04 18:53:00
1:53 PM,81.0,61.0,50,29.91,10.0,SE,17.3,-,N/A,,Scattered Clouds,130,2013-11-04 19:53:00
2:53 PM,82.0,61.0,49,29.89,10.0,SE,19.6,-,N/A,,Scattered Clouds,130,2013-11-04 20:53:00
3:53 PM,81.0,61.0,50,29.89,10.0,SSE,16.1,-,N/A,,Overcast,150,2013-11-04 21:53:00
4:53 PM,80.1,61.0,52,29.90,10.0,SSE,15.0,-,N/A,,Overcast,150,2013-11-04 22:53:00
5:53 PM,79.0,63.0,58,29.92,10.0,SE,10.4,-,N/A,,Overcast,140,2013-11-04 23:53:00
6:53 PM,77.0,63.0,62,29.92,10.0,SE,15.0,-,N/A,,Scattered Clouds,140,2013-11-05 00:53:00
7:53 PM,77.0,63.0,62,29.95,10.0,SE,10.4,-,N/A,,Clear,130,2013-11-05 01:53:00
8:53 PM,75.9,63.0,64,29.95,10.0,ESE,11.5,-,N/A,,Clear,120,2013-11-05 02:53:00
9:53 PM,73.9,63.0,68,29.96,10.0,ESE,8.1,-,N/A,,Clear,120,2013-11-05 03:53:00
10:53 PM,73.0,62.1,68,29.96,10.0,ESE,9.2,-,N/A,,Clear,120,2013-11-05 04:53:00
11:53 PM,73.0,63.0,71,29.96,10.0,SE,4.6,-,N/A,,Overcast,130,2013-11-05 05:53:00